Time,TemperatureF,DewpointF,PressureIn,WindDirection,WindDirectionDegrees,WindSpeedMPH,WindSpeedGustMPH,Humidity,HourlyPrecipIn,Conditions,Clouds,dailyrainin,SoftwareType,DateUTC
2013-06-15 00:01:00,56.4,55.0,30.01,SW,236,0.0,0.0,95,0.00,,,0.00,Wunderground v.1.13,2013-06-15 04:01:00,
2013-06-15 00:02:00,56.3,54.9,30.01,SW,236,0.0,0.0,95,0.00,,,0.00,Wunderground v.1.13,2013-06-15 04:02:00,
2013-06-15 00:07:00,56.2,54.8,30.01,SW,236,0.0,0.0,95,0.00,,,0.00,Wunderground v.1.13,2013-06-15 04:07:00,
2013-06-15 00:12:00,56.1,55.0,30.02,SW,236,0.0,0.0,96,0.00,,,0.00,Wunderground v.1.13,2013-06-15 04:12:00,
2013-06-15 00:17:00,56.0,54.9,30.02,SW,236,0.0,0.0,96,0.00,,,0.00,Wunderground v.1.13,2013-06-15 04:17:00,
2013-06-15 00:22:00,56.0,54.9,30.02,SW,236,0.0,0.0,96,0.00,,,0.00,Wunderground v.1.13,2013-06-15 04:22:00,
2013-06-15 00:27:00,55.9,54.8,30.01,SW,236,0.0,0.0,96,0.00,,,0.00,Wunderground v.1.13,2013-06-15 04:27:00,
2013-06-15 00:32:00,55.8,54.7,30.02,SW,236,0.0,0.0,96,0.00,,,0.00,Wunderground v.1.13,2013-06-15 04:32:00,
2013-06-15 00:37:00,55.8,54.7,30.02,SW,236,0.0,0.0,96,0.00,,,0.00,Wunderground v.1.13,2013-06-15 04:37:00,
2013-06-15 00:42:00,55.5,54.4,30.02,SW,236,0.0,0.0,96,0.00,,,0.00,Wunderground v.1.13,2013-06-15 04:42:00,
2013-06-15 00:47:00,55.5,54.4,30.02,SW,236,0.0,0.0,96,0.00,,,0.00,Wunderground v.1.13,2013-06-15 04:47:00,
2013-06-15 00:52:00,55.2,54.1,30.02,SW,236,0.0,0.0,96,0.00,,,0.00,Wunderground v.1.13,2013-06-15 04:52:00,
2013-06-15 00:57:00,55.1,54.0,30.02,SW,236,0.0,0.0,96,0.00,,,0.00,Wunderground v.1.13,2013-06-15 04:57:00,
2013-06-15 01:03:00,55.1,54.0,30.02,SW,236,0.0,0.0,96,0.00,,,0.00,Wunderground v.1.13,2013-06-15 05:03:00,
2013-06-15 01:09:00,54.9,53.8,30.02,SW,236,0.0,0.0,96,0.00,,,0.00,Wunderground v.1.13,2013-06-15 05:09:00,
2013-06-15 01:15:00,54.6,53.5,30.02,SW,236,0.0,0.0,96,0.00,,,0.00,Wunderground v.1.13,2013-06-15 05:15:00,
2013-06-15 01:21:00,54.2,53.1,30.02,SW,236,0.0,0.0,96,0.00,,,0.00,Wunderground v.1.13,2013-06-15 05:21:00,
2013-06-15 01:27:00,53.9,52.8,30.01,SW,236,0.0,0.0,96,0.00,,,0.00,Wunderground v.1.13,2013-06-15 05:27:00,
2013-06-15 01:33:00,53.7,52.6,30.01,SW,236,0.0,0.0,96,0.00,,,0.00,Wunderground v.1.13,2013-06-15 05:33:00,
2013-06-15 01:38:00,53.9,52.8,30.01,SW,236,0.0,0.0,96,0.00,,,0.00,Wunderground v.1.13,2013-06-15 05:38:00,
2013-06-15 01:44:00,53.4,52.3,30.01,SW,236,0.0,0.0,96,0.00,,,0.00,Wunderground v.1.13,2013-06-15 05:44:00,
2013-06-15 01:50:00,53.1,52.0,30.01,SW,236,0.0,0.0,96,0.00,,,0.00,Wunderground v.1.13,2013-06-15 05:50:00,
2013-06-15 01:56:00,52.9,51.8,30.01,SW,236,0.0,0.0,96,0.00,,,0.00,Wunderground v.1.13,2013-06-15 05:56:00,
2013-06-15 02:02:00,52.7,51.6,30.01,SW,236,0.0,0.0,96,0.00,,,0.00,Wunderground v.1.13,2013-06-15 06:02:00,
2013-06-15 02:08:00,52.4,51.3,30.00,SW,236,0.0,0.0,96,0.00,,,0.00,Wunderground v.1.13,2013-06-15 06:08:00,
2013-06-15 02:14:00,52.1,51.0,30.00,SW,236,0.0,0.0,96,0.00,,,0.00,Wunderground v.1.13,2013-06-15 06:14:00,
2013-06-15 02:20:00,52.2,51.1,30.00,SW,236,0.0,0.0,96,0.00,,,0.00,Wunderground v.1.13,2013-06-15 06:20:00,
2013-06-15 02:25:00,51.9,50.8,30.00,SW,236,0.0,0.0,96,0.00,,,0.00,Wunderground v.1.13,2013-06-15 06:25:00,
2013-06-15 02:31:00,51.8,50.7,30.00,SW,236,0.0,0.0,96,0.00,,,0.00,Wunderground v.1.13,2013-06-15 06:31:00,
2013-06-15 02:37:00,51.6,50.5,30.00,SW,236,0.0,0.0,96,0.00,,,0.00,Wunderground v.1.13,2013-06-15 06:37:00,
2013-06-15 02:43:00,51.3,50.2,30.00,SW,236,0.0,0.0,96,0.00,,,0.00,Wunderground v.1.13,2013-06-15 06:43:00,
2013-06-15 02:49:00,51.2,50.1,30.00,SW,236,0.0,0.0,96,0.00,,,0.00,Wunderground v.1.13,2013-06-15 06:49:00,
2013-06-15 02:54:00,51.0,49.9,30.00,SW,236,0.0,0.0,96,0.00,,,0.00,Wunderground v.1.13,2013-06-15 06:54:00,
2013-06-15 03:00:00,51.0,49.9,30.00,SW,236,0.0,0.0,96,0.00,,,0.00,Wunderground v.1.13,2013-06-15 07:00:00,
2013-06-15 03:05:00,50.8,49.7,30.00,SW,236,0.0,0.0,96,0.00,,,0.00,Wunderground v.1.13,2013-06-15 07:05:00,
2013-06-15 03:10:00,50.9,50.1,30.00,SW,236,0.0,0.0,97,0.00,,,0.00,Wunderground v.1.13,2013-06-15 07:10:00,
2013-06-15 03:15:00,51.0,50.2,30.01,SW,236,0.0,0.0,97,0.00,,,0.00,Wunderground v.1.13,2013-06-15 07:15:00,
2013-06-15 03:20:00,50.9,50.1,30.00,SW,236,0.0,0.0,97,0.00,,,0.00,Wunderground v.1.13,2013-06-15 07:20:00,
2013-06-15 03:25:00,50.7,49.9,30.00,SW,236,0.0,0.0,97,0.00,,,0.00,Wunderground v.1.13,2013-06-15 07:25:00,
2013-06-15 03:30:00,50.5,49.4,30.00,SW,236,0.0,0.0,96,0.00,,,0.00,Wunderground v.1.13,2013-06-15 07:30:00,
2013-06-15 03:35:00,50.4,49.3,30.00,SW,236,0.0,0.0,96,0.00,,,0.00,Wunderground v.1.13,2013-06-15 07:35:00,
2013-06-15 03:40:00,50.5,49.7,30.00,SW,236,0.0,0.0,97,0.00,,,0.00,Wunderground v.1.13,2013-06-15 07:40:00,
2013-06-15 03:45:00,50.3,49.5,30.00,SW,236,0.0,0.0,97,0.00,,,0.00,Wunderground v.1.13,2013-06-15 07:45:00,
2013-06-15 03:50:00,50.1,49.3,30.00,SW,236,0.0,0.0,97,0.00,,,0.00,Wunderground v.1.13,2013-06-15 07:50:00,
2013-06-15 03:55:00,49.8,48.7,30.00,SW,236,0.0,0.0,96,0.00,,,0.00,Wunderground v.1.13,2013-06-15 07:55:00,
2013-06-15 04:00:00,49.8,49.0,30.00,SW,236,0.0,0.0,97,0.00,,,0.00,Wunderground v.1.13,2013-06-15 08:00:00,
2013-06-15 04:05:00,49.7,48.9,30.00,SW,236,0.0,0.0,97,0.00,,,0.00,Wunderground v.1.13,2013-06-15 08:05:00,
2013-06-15 04:10:00,49.7,48.9,30.00,SW,236,0.0,0.0,97,0.00,,,0.00,Wunderground v.1.13,2013-06-15 08:10:00,
2013-06-15 04:15:00,49.6,48.8,30.00,SW,236,0.0,0.0,97,0.00,,,0.00,Wunderground v.1.13,2013-06-15 08:15:00,
2013-06-15 04:20:00,49.5,48.7,30.01,SW,236,0.0,0.0,97,0.00,,,0.00,Wunderground v.1.13,2013-06-15 08:20:00,
2013-06-15 04:25:00,49.6,48.8,30.01,SW,236,0.0,0.0,97,0.00,,,0.00,Wunderground v.1.13,2013-06-15 08:25:00,
2013-06-15 04:30:00,49.7,48.9,30.01,SW,236,0.0,0.0,97,0.00,,,0.00,Wunderground v.1.13,2013-06-15 08:30:00,
2013-06-15 04:35:00,49.8,49.0,30.01,SW,236,0.0,0.0,97,0.00,,,0.00,Wunderground v.1.13,2013-06-15 08:35:00,
2013-06-15 04:40:00,49.4,48.6,30.01,SW,236,0.0,0.0,97,0.00,,,0.00,Wunderground v.1.13,2013-06-15 08:40:00,
2013-06-15 04:45:00,49.2,48.4,30.02,SW,236,0.0,0.0,97,0.00,,,0.00,Wunderground v.1.13,2013-06-15 08:45:00,
2013-06-15 04:50:00,49.2,48.4,30.02,SW,236,0.0,0.0,97,0.00,,,0.00,Wunderground v.1.13,2013-06-15 08:50:00,
2013-06-15 04:55:00,49.3,48.5,30.03,SW,236,0.0,0.0,97,0.00,,,0.00,Wunderground v.1.13,2013-06-15 08:55:00,
2013-06-15 05:00:00,49.1,48.3,30.03,SW,236,0.0,0.0,97,0.00,,,0.00,Wunderground v.1.13,2013-06-15 09:00:00,
2013-06-15 05:05:00,49.1,48.3,30.04,SW,236,0.0,0.0,97,0.00,,,0.00,Wunderground v.1.13,2013-06-15 09:05:00,
2013-06-15 05:10:00,48.9,48.1,30.04,SW,236,0.0,0.0,97,0.00,,,0.00,Wunderground v.1.13,2013-06-15 09:10:00,
2013-06-15 05:15:00,48.9,48.1,30.04,SW,236,0.0,0.0,97,0.00,,,0.00,Wunderground v.1.13,2013-06-15 09:15:00,
2013-06-15 05:20:00,48.8,48.0,30.03,SW,236,0.0,0.0,97,0.00,,,0.00,Wunderground v.1.13,2013-06-15 09:20:00,
2013-06-15 05:25:00,48.9,48.1,30.03,SW,236,0.0,0.0,97,0.00,,,0.00,Wunderground v.1.13,2013-06-15 09:25:00,
2013-06-15 05:30:00,48.9,48.1,30.04,SW,236,0.0,0.0,97,0.00,,,0.00,Wunderground v.1.13,2013-06-15 09:30:00,
2013-06-15 05:35:00,49.1,48.3,30.04,SW,236,0.0,0.0,97,0.00,,,0.00,Wunderground v.1.13,2013-06-15 09:35:00,
2013-06-15 05:40:00,48.6,47.8,30.04,SW,236,0.0,0.0,97,0.00,,,0.00,Wunderground v.1.13,2013-06-15 09:40:00,
2013-06-15 05:45:00,48.5,47.7,30.05,SW,236,0.0,0.0,97,0.00,,,0.00,Wunderground v.1.13,2013-06-15 09:45:00,
2013-06-15 05:50:00,48.5,47.7,30.05,SW,236,0.0,0.0,97,0.00,,,0.00,Wunderground v.1.13,2013-06-15 09:50:00,
2013-06-15 05:55:00,48.5,47.7,30.04,SW,236,0.0,0.0,97,0.00,,,0.00,Wunderground v.1.13,2013-06-15 09:55:00,
2013-06-15 06:00:00,48.5,47.7,30.04,SW,236,0.0,0.0,97,0.00,,,0.00,Wunderground v.1.13,2013-06-15 10:00:00,
2013-06-15 06:05:00,48.6,47.8,30.04,SW,236,0.0,0.0,97,0.00,,,0.00,Wunderground v.1.13,2013-06-15 10:05:00,
2013-06-15 06:10:00,49.0,48.2,30.04,SW,236,0.0,0.0,97,0.00,,,0.00,Wunderground v.1.13,2013-06-15 10:10:00,
2013-06-15 06:15:00,48.8,48.0,30.05,SW,236,0.0,0.0,97,0.00,,,0.00,Wunderground v.1.13,2013-06-15 10:15:00,
2013-06-15 06:21:00,48.8,48.0,30.06,SW,236,0.0,0.0,97,0.00,,,0.00,Wunderground v.1.13,2013-06-15 10:21:00,
2013-06-15 06:26:00,49.0,48.2,30.06,SW,236,0.0,0.0,97,0.00,,,0.00,Wunderground v.1.13,2013-06-15 10:26:00,
2013-06-15 06:31:00,49.0,48.2,30.07,SW,236,0.0,0.0,97,0.00,,,0.00,Wunderground v.1.13,2013-06-15 10:31:00,
2013-06-15 06:36:00,48.9,48.1,30.07,SW,236,0.0,0.0,97,0.00,,,0.00,Wunderground v.1.13,2013-06-15 10:36:00,
2013-06-15 06:41:00,49.1,48.3,30.07,SW,236,0.0,0.0,97,0.00,,,0.00,Wunderground v.1.13,2013-06-15 10:41:00,
2013-06-15 06:46:00,49.6,48.8,30.07,SW,236,0.0,0.0,97,0.00,,,0.00,Wunderground v.1.13,2013-06-15 10:46:00,
2013-06-15 06:51:00,50.0,49.2,30.07,SW,236,0.0,0.0,97,0.00,,,0.00,Wunderground v.1.13,2013-06-15 10:51:00,
2013-06-15 06:56:00,50.3,49.8,30.07,SW,236,0.0,0.0,98,0.00,,,0.00,Wunderground v.1.13,2013-06-15 10:56:00,
2013-06-15 07:01:00,50.2,49.4,30.07,SW,236,0.0,0.0,97,0.00,,,0.00,Wunderground v.1.13,2013-06-15 11:01:00,
2013-06-15 07:06:00,50.4,49.9,30.07,SW,236,0.0,0.0,98,0.00,,,0.00,Wunderground v.1.13,2013-06-15 11:06:00,
2013-06-15 07:11:00,50.7,49.9,30.07,SW,236,0.0,0.0,97,0.00,,,0.00,Wunderground v.1.13,2013-06-15 11:11:00,
2013-06-15 07:16:00,51.1,50.6,30.07,SW,236,0.0,0.0,98,0.00,,,0.00,Wunderground v.1.13,2013-06-15 11:16:00,
2013-06-15 07:21:00,51.6,51.1,30.07,SW,236,0.0,0.0,98,0.00,,,0.00,Wunderground v.1.13,2013-06-15 11:21:00,
2013-06-15 07:26:00,52.1,51.6,30.07,SW,236,0.0,0.0,98,0.00,,,0.00,Wunderground v.1.13,2013-06-15 11:26:00,
2013-06-15 07:31:00,52.4,51.9,30.07,SW,236,0.0,0.0,98,0.00,,,0.00,Wunderground v.1.13,2013-06-15 11:31:00,
2013-06-15 07:36:00,53.0,52.5,30.07,SW,236,0.0,0.0,98,0.00,,,0.00,Wunderground v.1.13,2013-06-15 11:36:00,
2013-06-15 07:41:00,53.8,53.2,30.07,SW,236,0.0,0.0,98,0.00,,,0.00,Wunderground v.1.13,2013-06-15 11:41:00,
2013-06-15 07:46:00,54.5,53.9,30.08,SW,236,0.0,0.0,98,0.00,,,0.00,Wunderground v.1.13,2013-06-15 11:46:00,
2013-06-15 07:51:00,55.0,54.4,30.08,SW,236,0.0,0.0,98,0.00,,,0.00,Wunderground v.1.13,2013-06-15 11:51:00,
2013-06-15 07:56:00,55.5,54.9,30.08,SW,236,0.0,0.0,98,0.00,,,0.00,Wunderground v.1.13,2013-06-15 11:56:00,
2013-06-15 08:01:00,56.1,55.5,30.08,SW,236,0.0,0.0,98,0.00,,,0.00,Wunderground v.1.13,2013-06-15 12:01:00,
2013-06-15 08:06:00,56.8,56.2,30.07,SW,236,0.0,1.0,98,0.00,,,0.00,Wunderground v.1.13,2013-06-15 12:06:00,
2013-06-15 08:11:00,57.8,57.2,30.07,SW,236,0.0,3.0,98,0.00,,,0.00,Wunderground v.1.13,2013-06-15 12:11:00,
2013-06-15 08:16:00,58.4,57.8,30.08,SW,236,2.0,4.0,98,0.00,,,0.00,Wunderground v.1.13,2013-06-15 12:16:00,
2013-06-15 08:21:00,58.5,57.7,30.08,SW,236,3.0,3.0,97,0.00,,,0.00,Wunderground v.1.13,2013-06-15 12:21:00,
2013-06-15 08:26:00,58.7,57.9,30.08,SW,236,0.0,2.0,97,0.00,,,0.00,Wunderground v.1.13,2013-06-15 12:26:00,
2013-06-15 08:31:00,59.0,57.9,30.09,SW,236,3.0,5.0,96,0.00,,,0.00,Wunderground v.1.13,2013-06-15 12:31:00,
2013-06-15 08:36:00,59.4,58.0,30.09,SW,232,2.0,4.0,95,0.00,,,0.00,Wunderground v.1.13,2013-06-15 12:36:00,
2013-06-15 08:41:00,59.8,58.1,30.09,SW,232,0.0,3.0,94,0.00,,,0.00,Wunderground v.1.13,2013-06-15 12:41:00,
2013-06-15 08:46:00,60.4,58.4,30.10,SW,232,1.0,2.0,93,0.00,,,0.00,Wunderground v.1.13,2013-06-15 12:46:00,
2013-06-15 08:51:00,61.1,58.5,30.10,SW,232,1.0,5.0,91,0.00,,,0.00,Wunderground v.1.13,2013-06-15 12:51:00,
2013-06-15 08:56:00,61.4,58.4,30.10,SW,229,4.0,7.0,90,0.00,,,0.00,Wunderground v.1.13,2013-06-15 12:56:00,
2013-06-15 09:01:00,61.6,58.0,30.10,SW,229,0.0,3.0,88,0.00,,,0.00,Wunderground v.1.13,2013-06-15 13:01:00,
2013-06-15 09:06:00,62.0,58.1,30.10,SW,229,0.0,3.0,87,0.00,,,0.00,Wunderground v.1.13,2013-06-15 13:06:00,
2013-06-15 09:11:00,62.6,58.7,30.10,SW,229,1.0,3.0,87,0.00,,,0.00,Wunderground v.1.13,2013-06-15 13:11:00,
2013-06-15 09:16:00,63.3,59.7,30.10,SW,229,2.0,4.0,88,0.00,,,0.00,Wunderground v.1.13,2013-06-15 13:16:00,
2013-06-15 09:21:00,63.7,58.8,30.10,SW,229,0.0,1.0,84,0.00,,,0.00,Wunderground v.1.13,2013-06-15 13:21:00,
2013-06-15 09:26:00,64.3,59.0,30.09,SW,229,0.0,4.0,83,0.00,,,0.00,Wunderground v.1.13,2013-06-15 13:26:00,
2013-06-15 09:31:00,65.2,58.9,30.09,SW,229,0.0,2.0,80,0.00,,,0.00,Wunderground v.1.13,2013-06-15 13:31:00,
2013-06-15 09:36:00,66.0,60.3,30.09,SW,225,3.0,6.0,82,0.00,,,0.00,Wunderground v.1.13,2013-06-15 13:36:00,
2013-06-15 09:41:00,66.3,59.6,30.09,SW,225,0.0,1.0,79,0.00,,,0.00,Wunderground v.1.13,2013-06-15 13:41:00,
2013-06-15 09:46:00,66.4,58.2,30.09,SW,225,1.0,4.0,75,0.00,,,0.00,Wunderground v.1.13,2013-06-15 13:46:00,
2013-06-15 09:51:00,67.2,57.5,30.09,WSW,251,6.0,6.0,71,0.00,,,0.00,Wunderground v.1.13,2013-06-15 13:51:00,
2013-06-15 09:56:00,67.1,56.2,30.09,NW,314,0.0,5.0,68,0.00,,,0.00,Wunderground v.1.13,2013-06-15 13:56:00,
2013-06-15 10:01:00,67.4,56.9,30.08,NW,314,1.0,2.0,69,0.00,,,0.00,Wunderground v.1.13,2013-06-15 14:01:00,
2013-06-15 10:06:00,67.7,56.3,30.08,West,277,0.0,5.0,67,0.00,,,0.00,Wunderground v.1.13,2013-06-15 14:06:00,
2013-06-15 10:11:00,68.0,54.9,30.08,WNW,287,4.0,4.0,63,0.00,,,0.00,Wunderground v.1.13,2013-06-15 14:11:00,
2013-06-15 10:16:00,68.2,55.1,30.08,North,9,0.0,5.0,63,0.00,,,0.00,Wunderground v.1.13,2013-06-15 14:16:00,
2013-06-15 10:21:00,68.5,56.3,30.08,WNW,286,0.0,7.0,65,0.00,,,0.00,Wunderground v.1.13,2013-06-15 14:21:00,
2013-06-15 10:26:00,68.5,52.7,30.08,WNW,291,2.0,5.0,57,0.00,,,0.00,Wunderground v.1.13,2013-06-15 14:26:00,
2013-06-15 10:31:00,68.5,52.7,30.08,NW,319,3.0,7.0,57,0.00,,,0.00,Wunderground v.1.13,2013-06-15 14:31:00,
2013-06-15 10:37:00,69.3,56.2,30.08,SW,236,4.0,7.0,63,0.00,,,0.00,Wunderground v.1.13,2013-06-15 14:37:00,
2013-06-15 10:42:00,69.1,54.6,30.08,NNW,339,6.0,9.0,60,0.00,,,0.00,Wunderground v.1.13,2013-06-15 14:42:00,
2013-06-15 10:47:00,69.0,53.1,30.07,NNW,338,0.0,3.0,57,0.00,,,0.00,Wunderground v.1.13,2013-06-15 14:47:00,
2013-06-15 10:52:00,69.3,53.4,30.07,NNW,327,0.0,6.0,57,0.00,,,0.00,Wunderground v.1.13,2013-06-15 14:52:00,
2013-06-15 10:57:00,68.9,53.5,30.08,North,5,7.0,8.0,58,0.00,,,0.00,Wunderground v.1.13,2013-06-15 14:57:00,
2013-06-15 11:02:00,69.0,53.1,30.08,North,360,2.0,5.0,57,0.00,,,0.00,Wunderground v.1.13,2013-06-15 15:02:00,
2013-06-15 11:07:00,69.0,53.1,30.08,WNW,287,0.0,3.0,57,0.00,,,0.00,Wunderground v.1.13,2013-06-15 15:07:00,
2013-06-15 11:12:00,69.4,54.4,30.08,North,355,1.0,5.0,59,0.00,,,0.00,Wunderground v.1.13,2013-06-15 15:12:00,
2013-06-15 11:16:00,69.9,54.0,30.08,SW,221,4.0,6.0,57,0.00,,,0.00,Wunderground v.1.13,2013-06-15 15:16:00,
2013-06-15 11:22:00,70.1,54.6,30.08,NNW,338,1.0,5.0,58,0.00,,,0.00,Wunderground v.1.13,2013-06-15 15:22:00,
2013-06-15 11:27:00,70.2,55.7,30.08,West,271,0.0,6.0,60,0.00,,,0.00,Wunderground v.1.13,2013-06-15 15:27:00,
2013-06-15 11:32:00,70.0,55.0,30.07,WNW,295,0.0,6.0,59,0.00,,,0.00,Wunderground v.1.13,2013-06-15 15:32:00,
2013-06-15 11:37:00,70.2,55.7,30.08,NW,318,0.0,6.0,60,0.00,,,0.00,Wunderground v.1.13,2013-06-15 15:37:00,
2013-06-15 11:42:00,69.8,53.4,30.07,SW,232,5.0,8.0,56,0.00,,,0.00,Wunderground v.1.13,2013-06-15 15:42:00,
2013-06-15 11:47:00,69.5,53.1,30.07,NNW,338,4.0,6.0,56,0.00,,,0.00,Wunderground v.1.13,2013-06-15 15:47:00,
2013-06-15 11:52:00,70.8,54.8,30.07,North,5,3.0,4.0,57,0.00,,,0.00,Wunderground v.1.13,2013-06-15 15:52:00,
2013-06-15 11:57:00,70.3,53.9,30.07,WSW,247,1.0,6.0,56,0.00,,,0.00,Wunderground v.1.13,2013-06-15 15:57:00,
2013-06-15 12:02:00,70.6,55.1,30.07,WSW,242,1.0,3.0,58,0.00,,,0.00,Wunderground v.1.13,2013-06-15 16:02:00,
2013-06-15 12:07:00,71.1,54.6,30.07,West,276,0.0,5.0,56,0.00,,,0.00,Wunderground v.1.13,2013-06-15 16:07:00,
2013-06-15 12:12:00,71.0,54.5,30.06,WNW,296,2.0,5.0,56,0.00,,,0.00,Wunderground v.1.13,2013-06-15 16:12:00,
2013-06-15 12:17:00,71.2,55.2,30.07,West,267,0.0,4.0,57,0.00,,,0.00,Wunderground v.1.13,2013-06-15 16:17:00,
2013-06-15 12:22:00,71.2,54.2,30.06,South,185,2.0,10.0,55,0.00,,,0.00,Wunderground v.1.13,2013-06-15 16:22:00,
2013-06-15 12:27:00,71.3,54.3,30.06,South,186,0.0,3.0,55,0.00,,,0.00,Wunderground v.1.13,2013-06-15 16:27:00,
2013-06-15 12:32:00,71.3,54.8,30.06,West,260,4.0,5.0,56,0.00,,,0.00,Wunderground v.1.13,2013-06-15 16:32:00,
2013-06-15 12:37:00,71.3,53.3,30.06,North,11,5.0,9.0,53,0.00,,,0.00,Wunderground v.1.13,2013-06-15 16:37:00,
2013-06-15 12:42:00,71.0,54.0,30.06,NNW,347,1.0,7.0,55,0.00,,,0.00,Wunderground v.1.13,2013-06-15 16:42:00,
2013-06-15 12:47:00,71.9,54.3,30.06,NNW,338,6.0,7.0,54,0.00,,,0.00,Wunderground v.1.13,2013-06-15 16:47:00,
2013-06-15 12:52:00,72.1,54.0,30.06,NW,321,3.0,6.0,53,0.00,,,0.00,Wunderground v.1.13,2013-06-15 16:52:00,
2013-06-15 12:57:00,72.1,54.5,30.05,West,261,1.0,7.0,54,0.00,,,0.00,Wunderground v.1.13,2013-06-15 16:57:00,
2013-06-15 13:02:00,72.1,54.0,30.05,WSW,249,0.0,7.0,53,0.00,,,0.00,Wunderground v.1.13,2013-06-15 17:02:00,
2013-06-15 13:07:00,72.1,55.0,30.05,WSW,238,0.0,9.0,55,0.00,,,0.00,Wunderground v.1.13,2013-06-15 17:07:00,
2013-06-15 13:12:00,72.2,53.6,30.05,WNW,290,0.0,7.0,52,0.00,,,0.00,Wunderground v.1.13,2013-06-15 17:12:00,
2013-06-15 13:17:00,72.2,54.1,30.05,NW,325,0.0,5.0,53,0.00,,,0.00,Wunderground v.1.13,2013-06-15 17:17:00,
2013-06-15 13:22:00,72.5,53.3,30.05,NNW,331,1.0,7.0,51,0.00,,,0.00,Wunderground v.1.13,2013-06-15 17:22:00,
2013-06-15 13:27:00,72.8,53.1,30.05,WSW,246,0.0,6.0,50,0.00,,,0.00,Wunderground v.1.13,2013-06-15 17:27:00,
2013-06-15 13:32:00,73.5,55.3,30.05,West,261,3.0,4.0,53,0.00,,,0.00,Wunderground v.1.13,2013-06-15 17:32:00,
2013-06-15 13:37:00,72.6,52.9,30.05,North,10,1.0,6.0,50,0.00,,,0.00,Wunderground v.1.13,2013-06-15 17:37:00,
2013-06-15 13:42:00,73.0,53.3,30.04,NW,305,0.0,4.0,50,0.00,,,0.00,Wunderground v.1.13,2013-06-15 17:42:00,
2013-06-15 13:47:00,73.1,51.1,30.04,North,5,0.0,5.0,46,0.00,,,0.00,Wunderground v.1.13,2013-06-15 17:47:00,
2013-06-15 13:52:00,73.3,53.5,30.04,NW,319,3.0,8.0,50,0.00,,,0.00,Wunderground v.1.13,2013-06-15 17:52:00,
2013-06-15 13:57:00,73.7,53.3,30.04,NNW,336,2.0,9.0,49,0.00,,,0.00,Wunderground v.1.13,2013-06-15 17:57:00,
2013-06-15 14:02:00,73.5,54.3,30.04,NW,323,0.0,4.0,51,0.00,,,0.00,Wunderground v.1.13,2013-06-15 18:02:00,
2013-06-15 14:07:00,73.8,55.1,30.04,NNW,335,1.0,7.0,52,0.00,,,0.00,Wunderground v.1.13,2013-06-15 18:07:00,
2013-06-15 14:12:00,73.1,51.7,30.04,NW,316,0.0,3.0,47,0.00,,,0.00,Wunderground v.1.13,2013-06-15 18:12:00,
2013-06-15 14:17:00,72.9,52.1,30.04,NNW,328,5.0,6.0,48,0.00,,,0.00,Wunderground v.1.13,2013-06-15 18:17:00,
2013-06-15 14:22:00,73.2,53.4,30.04,NW,313,0.0,4.0,50,0.00,,,0.00,Wunderground v.1.13,2013-06-15 18:22:00,
2013-06-15 14:27:00,72.7,53.0,30.04,West,277,3.0,4.0,50,0.00,,,0.00,Wunderground v.1.13,2013-06-15 18:27:00,
2013-06-15 14:32:00,72.1,51.9,30.04,West,273,0.0,3.0,49,0.00,,,0.00,Wunderground v.1.13,2013-06-15 18:32:00,
2013-06-15 14:37:00,72.5,54.4,30.03,West,268,0.0,3.0,53,0.00,,,0.00,Wunderground v.1.13,2013-06-15 18:37:00,
2013-06-15 14:42:00,72.9,53.2,30.03,West,268,0.0,1.0,50,0.00,,,0.00,Wunderground v.1.13,2013-06-15 18:42:00,
2013-06-15 14:47:00,73.0,53.8,30.04,West,267,0.0,2.0,51,0.00,,,0.00,Wunderground v.1.13,2013-06-15 18:47:00,
2013-06-15 14:52:00,74.4,55.1,30.03,WNW,300,4.0,7.0,51,0.00,,,0.00,Wunderground v.1.13,2013-06-15 18:52:00,
2013-06-15 14:57:00,74.2,52.7,30.03,NW,309,1.0,5.0,47,0.00,,,0.00,Wunderground v.1.13,2013-06-15 18:57:00,
2013-06-15 15:02:00,74.8,53.8,30.02,NW,326,1.0,7.0,48,0.00,,,0.00,Wunderground v.1.13,2013-06-15 19:02:00,
2013-06-15 15:07:00,75.0,51.6,30.03,North,355,0.0,6.0,44,0.00,,,0.00,Wunderground v.1.13,2013-06-15 19:07:00,
2013-06-15 15:12:00,74.2,50.3,30.02,WSW,249,3.0,6.0,43,0.00,,,0.00,Wunderground v.1.13,2013-06-15 19:12:00,
2013-06-15 15:17:00,74.8,51.4,30.02,SW,225,1.0,5.0,44,0.00,,,0.00,Wunderground v.1.13,2013-06-15 19:17:00,
2013-06-15 15:23:00,75.2,52.4,30.02,WNW,294,1.0,6.0,45,0.00,,,0.00,Wunderground v.1.13,2013-06-15 19:23:00,
2013-06-15 15:28:00,75.0,54.0,30.02,NW,323,6.0,6.0,48,0.00,,,0.00,Wunderground v.1.13,2013-06-15 19:28:00,
2013-06-15 15:33:00,75.3,53.1,30.02,SW,228,3.0,8.0,46,0.00,,,0.00,Wunderground v.1.13,2013-06-15 19:33:00,
2013-06-15 15:38:00,75.9,51.8,30.02,SSW,198,0.0,7.0,43,0.00,,,0.00,Wunderground v.1.13,2013-06-15 19:38:00,
2013-06-15 15:43:00,75.8,52.9,30.01,ENE,61,0.0,8.0,45,0.00,,,0.00,Wunderground v.1.13,2013-06-15 19:43:00,
2013-06-15 15:48:00,75.1,52.9,30.01,ENE,61,0.0,3.0,46,0.00,,,0.00,Wunderground v.1.13,2013-06-15 19:48:00,
2013-06-15 15:53:00,75.3,51.9,30.01,North,355,3.0,10.0,44,0.00,,,0.00,Wunderground v.1.13,2013-06-15 19:53:00,
2013-06-15 15:58:00,75.3,51.9,30.01,North,355,0.0,4.0,44,0.00,,,0.00,Wunderground v.1.13,2013-06-15 19:58:00,
2013-06-15 16:03:00,75.1,53.5,30.01,SW,234,6.0,9.0,47,0.00,,,0.00,Wunderground v.1.13,2013-06-15 20:03:00,
2013-06-15 16:08:00,75.7,51.6,30.01,WSW,238,3.0,4.0,43,0.00,,,0.00,Wunderground v.1.13,2013-06-15 20:08:00,
2013-06-15 16:13:00,75.0,52.2,30.01,WSW,240,1.0,4.0,45,0.00,,,0.00,Wunderground v.1.13,2013-06-15 20:13:00,
2013-06-15 16:18:00,75.6,53.9,30.01,WSW,244,1.0,4.0,47,0.00,,,0.00,Wunderground v.1.13,2013-06-15 20:18:00,
2013-06-15 16:23:00,75.3,52.5,30.01,North,355,1.0,6.0,45,0.00,,,0.00,Wunderground v.1.13,2013-06-15 20:23:00,
2013-06-15 16:28:00,75.7,52.2,30.01,NNW,333,4.0,5.0,44,0.00,,,0.00,Wunderground v.1.13,2013-06-15 20:28:00,
2013-06-15 16:33:00,75.8,52.3,30.01,NW,326,0.0,6.0,44,0.00,,,0.00,Wunderground v.1.13,2013-06-15 20:33:00,
2013-06-15 16:38:00,75.8,49.1,30.01,NW,326,0.0,1.0,39,0.00,,,0.00,Wunderground v.1.13,2013-06-15 20:38:00,
2013-06-15 16:43:00,75.4,50.7,30.01,NW,313,0.0,3.0,42,0.00,,,0.00,Wunderground v.1.13,2013-06-15 20:43:00,
2013-06-15 16:48:00,75.4,50.7,30.01,NW,315,1.0,4.0,42,0.00,,,0.00,Wunderground v.1.13,2013-06-15 20:48:00,
2013-06-15 16:53:00,75.6,52.8,30.01,WNW,296,2.0,5.0,45,0.00,,,0.00,Wunderground v.1.13,2013-06-15 20:53:00,
2013-06-15 16:58:00,75.0,49.7,30.01,WNW,294,0.0,3.0,41,0.00,,,0.00,Wunderground v.1.13,2013-06-15 20:58:00,
2013-06-15 17:03:00,75.1,52.3,30.00,WNW,294,0.0,1.0,45,0.00,,,0.00,Wunderground v.1.13,2013-06-15 21:03:00,
2013-06-15 17:08:00,75.7,50.3,30.00,NW,316,0.0,5.0,41,0.00,,,0.00,Wunderground v.1.13,2013-06-15 21:08:00,
2013-06-15 17:13:00,75.7,51.0,30.01,NW,315,0.0,5.0,42,0.00,,,0.00,Wunderground v.1.13,2013-06-15 21:13:00,
2013-06-15 17:18:00,75.4,50.7,30.00,NW,317,0.0,3.0,42,0.00,,,0.00,Wunderground v.1.13,2013-06-15 21:18:00,
2013-06-15 17:23:00,75.0,50.3,30.00,NW,316,0.0,4.0,42,0.00,,,0.00,Wunderground v.1.13,2013-06-15 21:23:00,
2013-06-15 17:28:00,74.6,52.4,30.00,NW,312,1.0,3.0,46,0.00,,,0.00,Wunderground v.1.13,2013-06-15 21:28:00,
2013-06-15 17:33:00,74.8,52.0,30.00,NW,312,0.0,1.0,45,0.00,,,0.00,Wunderground v.1.13,2013-06-15 21:33:00,
2013-06-15 17:38:00,75.3,55.4,30.00,NW,311,0.0,4.0,50,0.00,,,0.00,Wunderground v.1.13,2013-06-15 21:38:00,
2013-06-15 17:43:00,74.9,52.7,30.00,WNW,297,0.0,3.0,46,0.00,,,0.00,Wunderground v.1.13,2013-06-15 21:43:00,
2013-06-15 17:48:00,74.5,52.9,30.00,West,275,1.0,3.0,47,0.00,,,0.00,Wunderground v.1.13,2013-06-15 21:48:00,
2013-06-15 17:53:00,74.1,52.6,30.00,West,275,2.0,2.0,47,0.00,,,0.00,Wunderground v.1.13,2013-06-15 21:53:00,
2013-06-15 17:58:00,74.5,52.9,30.00,West,275,0.0,1.0,47,0.00,,,0.00,Wunderground v.1.13,2013-06-15 21:58:00,
2013-06-15 18:03:00,74.4,52.3,30.00,West,263,0.0,5.0,46,0.00,,,0.00,Wunderground v.1.13,2013-06-15 22:03:00,
2013-06-15 18:08:00,74.2,52.7,30.00,West,264,0.0,4.0,47,0.00,,,0.00,Wunderground v.1.13,2013-06-15 22:08:00,
2013-06-15 18:13:00,74.2,52.7,30.00,West,262,0.0,4.0,47,0.00,,,0.00,Wunderground v.1.13,2013-06-15 22:13:00,
2013-06-15 18:18:00,74.6,53.0,30.00,West,262,0.0,1.0,47,0.00,,,0.00,Wunderground v.1.13,2013-06-15 22:18:00,
2013-06-15 18:23:00,74.0,51.3,30.00,West,259,1.0,4.0,45,0.00,,,0.00,Wunderground v.1.13,2013-06-15 22:23:00,
2013-06-15 18:28:00,73.7,54.4,30.00,West,259,1.0,1.0,51,0.00,,,0.00,Wunderground v.1.13,2013-06-15 22:28:00,
2013-06-15 18:33:00,73.9,53.0,30.00,West,259,0.0,2.0,48,0.00,,,0.00,Wunderground v.1.13,2013-06-15 22:33:00,
2013-06-15 18:38:00,73.8,52.3,30.00,West,259,0.0,2.0,47,0.00,,,0.00,Wunderground v.1.13,2013-06-15 22:38:00,
2013-06-15 18:43:00,73.7,51.0,30.00,West,259,0.0,1.0,45,0.00,,,0.00,Wunderground v.1.13,2013-06-15 22:43:00,
2013-06-15 18:48:00,73.4,54.7,30.01,West,259,0.0,1.0,52,0.00,,,0.00,Wunderground v.1.13,2013-06-15 22:48:00,
2013-06-15 18:53:00,72.6,53.4,30.01,West,259,0.0,2.0,51,0.00,,,0.00,Wunderground v.1.13,2013-06-15 22:53:00,
2013-06-15 18:58:00,72.4,52.2,30.01,SSW,211,0.0,2.0,49,0.00,,,0.00,Wunderground v.1.13,2013-06-15 22:58:00,
2013-06-15 19:03:00,72.3,53.2,30.01,SSW,211,1.0,1.0,51,0.00,,,0.00,Wunderground v.1.13,2013-06-15 23:03:00,
2013-06-15 19:08:00,71.2,60.1,30.01,SSW,211,0.0,1.0,68,0.00,,,0.00,Wunderground v.1.13,2013-06-15 23:08:00,
2013-06-15 19:13:00,70.3,58.8,30.01,SSW,211,0.0,0.0,67,0.00,,,0.00,Wunderground v.1.13,2013-06-15 23:13:00,
2013-06-15 19:18:00,69.5,59.7,30.01,SSW,211,0.0,0.0,71,0.00,,,0.00,Wunderground v.1.13,2013-06-15 23:18:00,
2013-06-15 19:23:00,68.8,58.6,30.01,SSW,211,0.0,0.0,70,0.00,,,0.00,Wunderground v.1.13,2013-06-15 23:23:00,
2013-06-15 19:28:00,68.4,58.6,30.01,SSW,211,0.0,0.0,71,0.00,,,0.00,Wunderground v.1.13,2013-06-15 23:28:00,
2013-06-15 19:33:00,67.9,59.3,30.01,SSW,211,0.0,0.0,74,0.00,,,0.00,Wunderground v.1.13,2013-06-15 23:33:00,
2013-06-15 19:38:00,67.5,59.3,30.01,SSW,211,0.0,0.0,75,0.00,,,0.00,Wunderground v.1.13,2013-06-15 23:38:00,
2013-06-15 19:43:00,66.8,59.0,30.01,SSW,211,0.0,0.0,76,0.00,,,0.00,Wunderground v.1.13,2013-06-15 23:43:00,
2013-06-15 19:48:00,66.5,58.3,30.01,SSW,211,0.0,0.0,75,0.00,,,0.00,Wunderground v.1.13,2013-06-15 23:48:00,
2013-06-15 19:53:00,66.2,58.0,30.00,SSW,211,0.0,0.0,75,0.00,,,0.00,Wunderground v.1.13,2013-06-15 23:53:00,
2013-06-15 19:58:00,66.0,58.2,30.00,SSW,211,0.0,0.0,76,0.00,,,0.00,Wunderground v.1.13,2013-06-15 23:58:00,
2013-06-15 20:03:00,65.7,57.9,30.00,SSW,211,0.0,0.0,76,0.00,,,0.00,Wunderground v.1.13,2013-06-16 00:03:00,
2013-06-15 20:08:00,65.3,57.2,30.00,SSW,211,0.0,0.0,75,0.00,,,0.00,Wunderground v.1.13,2013-06-16 00:08:00,
2013-06-15 20:13:00,65.1,58.1,30.00,SSW,211,0.0,0.0,78,0.00,,,0.00,Wunderground v.1.13,2013-06-16 00:13:00,
2013-06-15 20:18:00,64.7,57.3,30.00,SSW,211,0.0,0.0,77,0.00,,,0.00,Wunderground v.1.13,2013-06-16 00:18:00,
2013-06-15 20:23:00,64.0,57.0,30.00,SSW,211,0.0,0.0,78,0.00,,,0.00,Wunderground v.1.13,2013-06-16 00:23:00,
2013-06-15 20:28:00,63.8,57.5,30.00,SSW,211,0.0,0.0,80,0.00,,,0.00,Wunderground v.1.13,2013-06-16 00:28:00,
2013-06-15 20:33:00,63.4,57.8,30.00,SSW,211,0.0,0.0,82,0.00,,,0.00,Wunderground v.1.13,2013-06-16 00:33:00,
2013-06-15 20:38:00,63.3,57.7,30.00,SSW,211,0.0,0.0,82,0.00,,,0.00,Wunderground v.1.13,2013-06-16 00:38:00,
2013-06-15 20:43:00,63.0,57.8,30.00,SSW,211,0.0,0.0,83,0.00,,,0.00,Wunderground v.1.13,2013-06-16 00:43:00,
2013-06-15 20:48:00,62.6,58.0,29.99,SSW,211,0.0,0.0,85,0.00,,,0.00,Wunderground v.1.13,2013-06-16 00:48:00,
2013-06-15 20:53:00,62.5,57.3,29.99,SSW,211,0.0,0.0,83,0.00,,,0.00,Wunderground v.1.13,2013-06-16 00:53:00,
2013-06-15 20:58:00,62.3,57.4,29.99,SSW,211,0.0,0.0,84,0.00,,,0.00,Wunderground v.1.13,2013-06-16 00:58:00,
2013-06-15 21:03:00,62.1,57.5,29.99,SSW,211,0.0,0.0,85,0.00,,,0.00,Wunderground v.1.13,2013-06-16 01:03:00,
2013-06-15 21:08:00,62.0,57.1,29.99,SSW,211,0.0,0.0,84,0.00,,,0.00,Wunderground v.1.13,2013-06-16 01:08:00,
2013-06-15 21:13:00,61.9,57.3,29.99,SSW,211,0.0,0.0,85,0.00,,,0.00,Wunderground v.1.13,2013-06-16 01:13:00,
2013-06-15 21:18:00,61.6,57.0,29.99,SSW,211,0.0,0.0,85,0.00,,,0.00,Wunderground v.1.13,2013-06-16 01:18:00,
2013-06-15 21:23:00,61.4,56.8,29.99,SSW,211,0.0,0.0,85,0.00,,,0.00,Wunderground v.1.13,2013-06-16 01:23:00,
2013-06-15 21:28:00,61.1,56.9,29.99,SSW,211,0.0,0.0,86,0.00,,,0.00,Wunderground v.1.13,2013-06-16 01:28:00,
2013-06-15 21:33:00,60.8,56.6,29.99,SSW,211,0.0,0.0,86,0.00,,,0.00,Wunderground v.1.13,2013-06-16 01:33:00,
2013-06-15 21:38:00,60.3,56.4,29.99,SSW,211,0.0,0.0,87,0.00,,,0.00,Wunderground v.1.13,2013-06-16 01:38:00,
2013-06-15 21:43:00,60.0,56.4,29.99,SSW,211,0.0,0.0,88,0.00,,,0.00,Wunderground v.1.13,2013-06-16 01:43:00,
2013-06-15 21:48:00,59.8,56.6,29.99,SSW,211,0.0,0.0,89,0.00,,,0.00,Wunderground v.1.13,2013-06-16 01:48:00,
2013-06-15 21:53:00,59.5,56.3,29.99,SSW,211,0.0,0.0,89,0.00,,,0.00,Wunderground v.1.13,2013-06-16 01:53:00,
2013-06-15 21:58:00,59.1,56.2,29.98,SSW,211,0.0,0.0,90,0.00,,,0.00,Wunderground v.1.13,2013-06-16 01:58:00,
2013-06-15 22:03:00,59.1,56.2,29.98,SSW,211,0.0,0.0,90,0.00,,,0.00,Wunderground v.1.13,2013-06-16 02:03:00,
2013-06-15 22:09:00,59.0,56.4,29.99,SSW,211,0.0,0.0,91,0.00,,,0.00,Wunderground v.1.13,2013-06-16 02:09:00,
2013-06-15 22:14:00,59.0,56.4,29.99,SSW,211,0.0,0.0,91,0.00,,,0.00,Wunderground v.1.13,2013-06-16 02:14:00,
2013-06-15 22:19:00,59.2,56.6,29.99,SSW,211,0.0,0.0,91,0.00,,,0.00,Wunderground v.1.13,2013-06-16 02:19:00,
2013-06-15 22:24:00,59.3,56.7,30.00,SSW,211,0.0,0.0,91,0.00,,,0.00,Wunderground v.1.13,2013-06-16 02:24:00,
2013-06-15 22:29:00,59.3,56.7,30.00,SSW,211,0.0,0.0,91,0.00,,,0.00,Wunderground v.1.13,2013-06-16 02:29:00,
2013-06-15 22:34:00,59.1,56.5,30.00,SSW,211,0.0,0.0,91,0.00,,,0.00,Wunderground v.1.13,2013-06-16 02:34:00,
2013-06-15 22:39:00,59.2,56.6,30.00,SSW,211,0.0,0.0,91,0.00,,,0.00,Wunderground v.1.13,2013-06-16 02:39:00,
2013-06-15 22:44:00,59.3,56.7,30.00,SSW,211,0.0,0.0,91,0.00,,,0.00,Wunderground v.1.13,2013-06-16 02:44:00,
2013-06-15 22:49:00,59.4,56.8,30.00,SSW,211,0.0,0.0,91,0.00,,,0.00,Wunderground v.1.13,2013-06-16 02:49:00,
2013-06-15 22:54:00,59.3,56.7,30.00,SSW,210,0.0,0.0,91,0.00,,,0.00,Wunderground v.1.13,2013-06-16 02:54:00,
2013-06-15 22:59:00,59.2,56.6,30.00,SSW,211,0.0,0.0,91,0.00,,,0.00,Wunderground v.1.13,2013-06-16 02:59:00,
2013-06-15 23:04:00,59.3,56.7,30.00,SSW,211,0.0,0.0,91,0.00,,,0.00,Wunderground v.1.13,2013-06-16 03:04:00,
2013-06-15 23:09:00,59.4,56.8,30.00,SSW,211,0.0,0.0,91,0.00,,,0.00,Wunderground v.1.13,2013-06-16 03:09:00,
2013-06-15 23:14:00,59.5,56.9,30.01,SSW,211,0.0,0.0,91,0.00,,,0.00,Wunderground v.1.13,2013-06-16 03:14:00,
2013-06-15 23:19:00,59.5,56.9,30.01,SSW,210,0.0,0.0,91,0.00,,,0.00,Wunderground v.1.13,2013-06-16 03:19:00,
2013-06-15 23:24:00,59.5,56.9,30.01,SSW,211,0.0,0.0,91,0.00,,,0.00,Wunderground v.1.13,2013-06-16 03:24:00,
2013-06-15 23:29:00,59.4,56.8,30.01,SSW,211,0.0,0.0,91,0.00,,,0.00,Wunderground v.1.13,2013-06-16 03:29:00,
2013-06-15 23:34:00,59.3,56.7,30.01,SSW,211,0.0,0.0,91,0.00,,,0.00,Wunderground v.1.13,2013-06-16 03:34:00,
2013-06-15 23:39:00,59.2,56.6,30.00,SSW,211,0.0,0.0,91,0.00,,,0.00,Wunderground v.1.13,2013-06-16 03:39:00,
2013-06-15 23:44:00,59.2,56.6,30.01,SSW,211,0.0,0.0,91,0.00,,,0.00,Wunderground v.1.13,2013-06-16 03:44:00,
2013-06-15 23:49:00,58.9,56.3,30.01,SSW,211,0.0,0.0,91,0.00,,,0.00,Wunderground v.1.13,2013-06-16 03:49:00,
2013-06-15 23:54:00,59.0,56.7,30.01,SSW,211,0.0,0.0,92,0.00,,,0.00,Wunderground v.1.13,2013-06-16 03:54:00,
2013-06-15 23:59:00,59.1,56.8,30.01,SSW,211,0.0,0.0,92,0.00,,,0.00,Wunderground v.1.13,2013-06-16 03:59:00,